Weather Roundup
Issued by NWS Chicago, IL

Home | Current Version | Previous Version | Graphics & Text | Print | Product List | Glossary On
Versions: 1 2 3 4 5 6 7 8 9 10 11 12 13 14 15 16 17 18 19 20 21 22 23 24 25 26 27 28 29 30 31 32 33 34 35 36 37 38 39 40 41 42 43 44 45 46 47 48 49 50
000
NZUS59 KLOT 171412
HRRLOT

CHICAGO AREA WEATHER ROUNDUP
NATIONAL WEATHER SERVICE CHICAGO/ROMEOVILLE IL
800 AM CST TUE JAN 17 2017

NOTE: "FAIR" INDICATES FEW OR NO CLOUDS BELOW 12,000 FEET WITH NO
SIGNIFICANT WEATHER AND/OR OBSTRUCTIONS TO VISIBILITY.

* THESE STATIONS ARE NOT UNDER NWS QUALITY CONTROL. THEY ALSO MAY NOT
  REPORT WEATHER SUCH AS PRECIPITATION OR FOG.

ILZ005-006-012>014-019>023-171500-
NORTHEAST ILLINOIS

CITY           SKY/WX    TMP DP  RH WIND       PRES   REMARKS
OHARE          CLOUDY    37  36  96 W9        29.80R FOG
MIDWAY         CLOUDY    35  35 100 W13       29.83R WCI  26
AURORA         FOG       36  35  96 W8        29.84R VSB 1/4
LANSING*       CLOUDY    38  38 100 W13G20    29.83R
JOLIET*        FOG       37  37 100 SW6       29.86R VSB 1/2
WAUKEGAN       FOG       36  36 100 NW7       29.78R VSB 1/4
DUPAGE AIRPORT FOG       36  33  89 SW10      29.82R VSB 1
WHEELING       CLOUDY    37  36  96 W6        29.81R
KANKAKEE*      CLOUDY    40  40  98 W12       29.87R FOG
MORRIS*        FOG       36  36  99 W9        29.86R VSB 1/2
LEWIS AIRPORT* FOG       35  35 100 W10       29.84R VSB 1/4 WCI  28
NORTHERLY ISL    N/A     38  37  97 SW10        N/A
$$

WIZ051-052-058>065-066-070>072-171500-
SOUTHEAST WISCONSIN

CITY           SKY/WX    TMP DP  RH WIND       PRES   REMARKS
MILWAUKEE      DRZL/FOG  37  35  92 NW8       29.79S VSB 1/2
KENOSHA*       FOG       36  35  96 NW9       29.78R VSB 3/4
RACINE*        FOG       37  35  92 NW9       29.79S VSB 1/2
WAUKESHA       CLOUDY    34  34 100 N6        29.80S FOG     WCI  29
WEST BEND      DRIZZLE   34  34 100 NW6       29.81R WCI  29
$$

INZ001>003-010>013-019-020-171500-
NORTHWEST INDIANA

CITY           SKY/WX    TMP DP  RH WIND       PRES   REMARKS
GARY*          CLOUDY    41  39  93 SW12G24   29.82R
MICHIGAN CITY* NOT AVBL
RENSSELAER*    NOT AVBL
VALPARAISO     CLOUDY    41  41 100 W17       29.83R
$$

LMZ740>746-171500-
SOUTHERN LAKE MICHIGAN

STATION/POSITION TIME  SKY/WX   TEMP WIND        PRES    VSBY
                                AIR  DIR/SP/G
                 (UTC)          (F)  (DEG/KT/KT) (MB)    (MI)
HARRISON CRIB    1340            38  270/ 15/ 16   N/A
BURNHAM HARBOR   1400            38  240/  9/ 15   N/A
CALUMET HARBOR   1348            39  220/ 10/ 16 1009.1R
BURNS HARBOR     1240            41  250/ 14/ 16 1008.8
MICHIGAN CITY    NOT AVBL
$$

ABBREVIATIONS USED IN REMARKS
   TC - TEMPERATURE IN CELSIUS
  WCI - WIND CHILL INDEX
   HX - HEAT INDEX
  VSB - VISIBILITY
$$




USA.gov is the U.S. government's official web portal to all federal, state and local government web resources and services.